"Pseudo-MPEC" for 2000-045A = NORAD 26463 = Cluster Rumba
Created 2025 Sep 28 13:34:47 UT using Find_Orb
Click here for an explanation of pseudo-MPECs
Astrometry:
A11rZz0 C2025 09 04Nun:]98AstrometrybGhv9r_pq,-gm'*jvOd$:ch82]u%u7L=3?jT08
A11rZz0 C2025 09 04L5;YB=Fjy+4O4x-O;K=T8)=PuDGbck5y-nu$n?#SS-hR:=G@4!X5T08
A11rZz0 C2025 09 04_u?Z?fv)X1\?YWCNQ!'^.IjH@8BUmDRv=fo]cxoN44.FX6wYq[AAT08
ZTF105T C2025 09 08.15285920 14 50.579+16 48 22.10 .50 17.02gU I41
ZTF105T C2025 09 08.15319420 14 46.778+16 48 06.53 .50 17.02gU I41
ZTF105T C2025 09 08.15380720 14 40.507+16 47 38.78 .50 17.05gU I41
ZTF105T C2025 09 08.15415520 14 36.926+16 47 23.71 .50 17.05gU I41
A11s1rd C2025 09 08LCadfpWfnd1*2oGddvyredacted;y*y1tvDk1e2].N!tx3;mQ1$[T08
A11s1rd C2025 09 08CM)b8Y;k=:V7j(!?o9Mwnu[qh2(GHt+hfd]1'wgrggB,I54F*jBeT08
A11s1rd C2025 09 08adxi1o`+7ot8PKYHl!Hi-r$ur.e:t%LJjL?*W1e_WV16$W7FyRKNT08
A11s1rd C2025 09 08KYn?-txYDC_'pOlv4IRy:0W+k#^C(3Hb'hoU@)Tchrk_!75i;BCUT08
2000-045A CK250909:23004004 312.828532 +21.545598 .70 17.1 GW Z58
2000-045A CK250909:23010168 312.820425 +21.543425 .47 16.7 GW Z58
2000-045A CK250909:23013197 312.809516 +21.540477 600 590m16.9 GW Z58
2000-045A CK250909:23022031 312.791876 +21.535233 .33 16.6 GW Z58
2000-045A CK250909:23050143 312.732558 +21.518368 530 520m16.3 GW Z58
2000-045A CK250909:23072213 312.680610 +21.503608 .70 16.7 GW Z58
2000-045A CK250910:22303364 268.728769 -05.357690 590 550m13.5 GW Z58
2000-045A CK250910:22314264 268.463103 -05.525165 700 680m13.8 GW Z58
2000-045A CK250910:22331396 268.105326 -05.750225 600 560m13.1 GW Z58
2000-045A CK250910:22362693 267.328653 -06.238855 810 760m13.5 GW Z58
2000-045A CK250911:01004518 071.559877 +07.171569 1.9 GW Z58
2000-045A CK250911:01010975 070.752681 +07.658278 1.4 GW Z58
2000-045A CK250911:01012822 070.150769 +08.019654 1.5 1.6 GW Z58
2000-045A CK250911:01210548 040.498385 +22.673333 1.0 11.2 GW Z58
2000-045A CK250911:01212665 040.096069 +22.821864 510 520m10.6 GW Z58
2000-045A CK250911:01214502 039.755456 +22.946210 720 730m11.0 GW Z58
2000-045A CK250911:01220659 039.356622 +23.090616 860 870m10.8 GW Z58
2000-045A CK250911:01222523 039.013212 +23.213846 .92 .95 11.6 GW Z58
2000-045A CK250911:01225719 038.435588 +23.418737 1.2 11.4 GW Z58
2000-045A CK250911:01231769 038.065890 +23.548285 1.0 11.7 GW Z58
A11s2Eh C2025 09 11R:CWyA`fiG1KRTVow(`6]x%MclickmhereGJHJw[;u'.wNsI+KW;T05
A11s2Eh C2025 09 11A.D[x[3$.K2(%\E#r:umB)EJWHU(YK#ho9@*LDm-J%5Ob4R4ON[KT05
A11s2Eh C2025 09 111ZOB(_Kb0(*YAJcHIVUs\Dx3Uf]GgH(pk0UpLeR0xt5bv^r+1T)3T05
2000-045A KCK250911:22261700 319.672187 +24.030446 390 400m16.6 GW Z58
2000-045A KCK250911:22284727 319.612045 +24.017727 .48 16.8 GW Z58
2000-045A KCK250911:22311822 319.551748 +24.004834 .48 16.7 GW Z58
A11s4zc C2025 09 16,BrXY@y(HpM2%w9EO#C#8_yPX*a24O?*q7cQ1332:l797@ZD/@C_T08
A11s4zc C2025 09 16x(!dpP]!u=R`Z?tF3t8JgOk]0il*f,(n-Fd]*?^%\k?d9=xgUT+GT08
A11s4zc C2025 09 16lo6^y#j[KQ'jh1/'jEL0b6#%hk4ky?lkh)*g`N1*UnodO`0!JL8'T08
A11s7Kf C2025 09 17+r?KL9q'!!Ia*KL0U(X%l.?V/i\!pg(Ca-ITK@[Lv^30:j?BHDh0T05
A11s7Kf C2025 09 17cE@,[AW##Td1#r6wScs8PyjiA2l@U)Tvj5rG8u!V`XNwU\:ONj(PT05
A11s7Kf C2025 09 175Lq!kVtO0q?i@8duo%SCV.%p7S:@])l/+d;^OUHDhrccgBex%DHRT05
A11s9HN C2025 09 18b65F\x+FyF+(:Q`9sYV]xSeP2dxO:?+`*forkH)l-erY;6lqMlIZT05
A11s9HN C2025 09 18XymBwv87;wx='C@d5'Pb)FAx\3IcYrD7q73H3%`(#8*5tIK!S3_yT05
A11s9HN C2025 09 18.]6uayTYCF+43S!9m*_*uXIYVgrVO0l$qEX*CX5WlCY+j=!P!!%YT05
A11s9HN C2025 09 18%Yl[ekOu]SF]ePx@7jcpOSgP]h+GdunFuYk$.)1Tfw^lu$)?gTnuT05
ZTF106H C2025 09 23.23735021 48 17.253+26 50 00.39 .50 16.08RU I41
ZTF106H C2025 09 23.23769721 48 13.193+26 49 48.63 .50 16.08RU I41
ZTF106H C2025 09 23.28550921 39 21.940+26 19 35.61 .50 16.97gU I41
ZTF106H C2025 09 23.28585521 39 18.230+26 19 21.47 .50 16.97gU I41
C44ZYF1 C2025 09 23.28794 21 37 45.15 +26 17 26.7 .50 16.4 GV 703
C44ZYF1 C2025 09 23.29021 21 37 22.25 +26 15 44.7 .50 16.3 GV 703
C44ZYF1 C2025 09 23.29248 21 36 59.51 +26 14 01.8 .50 16.6 GV 703
A11swf9 C2025 09 23AxXd]OeHJYHl9$B6.bgm.Kl59F)hA[+rOK@*BTw62QX:uia)_2utT05
A11swf9 C2025 09 23%uWm=8n1CM+w2N+cnv@.KdoUI\PDaLUUCH#E3MR_F]Hd!p;B%f`NT05
A11swf9 C2025 09 23u/0L-LR=[Oe^tx8!pj:qN[Oexplanation3PK8q1@luQr\#$y^SdT05
A11swf9 C2025 09 23v(b4)3%x*S:?\Mp.eAs,3n7`QnP,ro(TWp7ju5N(Pne#dMC_)LotT05
A11sIbq C2025 09 242hQ*t#yV11LHU^*^hx#kPh!QKME:TgE8;H8qY#x[XT?b8a:-VFu1T05
A11sIbq C2025 09 24QG_+FS_4xxOFj!YmS:%-4ByO\;\m2$m3=yYp8GHjwH4R''+vald)T05
A11sIbq C2025 09 24k9?aPf#bEJubI.3V[`-^u_eD;=6YF[M@B#,EeQJ:nM'iXP?TKXt'T05
A11sIbq C2025 09 245ylIENv?pyLp#@2qG4R7GIAf#FEw'!gn6v2EFeKp]Ojo8)-)*0JKT05
A11sIbq C2025 09 24gJp?QK,2svlobkp'=fdFWYo-xG=r_LB$WG0CA`ijH[`OR'9R^LR-T05
2000-045A CK250925:01204921 019.841488 +33.572393 230 220m11.7 GW J04
2000-045A CK250925:01205526 019.775449 +33.578231 230 220m12.5 GW J04
2000-045A CK250925:01210132 019.709867 +33.583892 .28 12.8 GW J04
2000-045A CK250925:01210735 019.643801 +33.589582 180 160m12.4 GW J04
2000-045A CK250925:01211351 019.577401 +33.595296 150 130m11.8 GW J04
2000-045A CK250925:01211955 019.511085 +33.601001 270 260m12.3 GW J04
2000-045A CK250925:01212560 019.446033 +33.606544 240 230m12.7 GW J04
2000-045A CK250925:01213079 019.390229 +33.611323 150 130m11.6 GW J04
2000-045A CK250925:01213673 019.325960 +33.616661 210 200m12.6 GW J04
2000-045A CK250925:01214178 019.272004 +33.621179 150 140m11.8 GW J04
2000-045A CK250925:01214692 019.217280 +33.625754 .40 12.5 GW J04
2000-045A CK250925:01215195 019.162908 +33.630160 210 200m12.7 GW J04
Station data:
(703) Catalina Sky Survey (N32.417029 W110.732640) US/Arizona. Observer H.
Gröller. Measurers T. Beuden, V. F. Carvajal, D. Fay, J. B. Fazekas, D.
C. Fuls, A. R. Gibbs, A. D. Grauer, H. Gröller, J. K. Hogan, R. A.
Kowalski, S. M. Larson, G. J. Leonard, C. J. Loewen, D. Rankin, R. L.
Seaman, F. C. Shelly, K. W. Wierzchoś. 0.68-m Schmidt + 10K CCD.
(I41) Palomar Mountain--ZTF (N33.357336 W116.859780) US/California.
Observers B. T. Bolin, Z. T. F. Collaboration. Measurers B. T. Bolin,
Z.-Y. Lin, F. J. Masci. 1.2-m f/2.4 Schmidt.
(J04) ESA Optical Ground Station, Tenerife (N28.300971 W16.511823) Canary
Islands (Spain). Observer D. Abreu. Measurers M. Micheli, D. Koschny, E.
Schwab, M. Busch, A. Knöfel. 1.0-m f/4.4 reflector + CCD.
(T05) ATLAS-HKO, Haleakala (N20.707582 W156.257008) US/Hawaii. Observers
L. Denneau, R. Siverd, J. Tonry, H. Weiland. Measurers L. Denneau, N.
Erasmus, A. Fitzsimmons, J. Robinson, R. Siverd, J. Tonry, H. Weiland.
0.5-m f/2.0 Schmidt + CCD.
(T08) ATLAS-MLO, Mauna Loa (N19.536150 W155.576050) US/Hawaii. Observers
L. Denneau, R. Siverd, J. Tonry, H. Weiland. Measurers L. Denneau, N.
Erasmus, A. Fitzsimmons, J. Robinson, R. Siverd, J. Tonry, H. Weiland.
0.5-m f/2.0 Schmidt + CCD.
(Z58) ESA TBT Cebreros Observatory (N40.454053 W4.369320) Spain. Observers
F. Ocaña, A. Montero, A. Ibarra. Measurers M. Micheli, F. Oca\~na, D.
Koschny. 0.56-m f/2.52 astrograph prime-focus corrector + 4K CCD.
Orbital elements: 2000-045A = NORAD 26463 = Cluster Rumba
Perigee 2025 Oct 22.845302 +/- 0.0046792 TT = 20:17:14.0 (JD 2460971.345302)
Epoch 2025 Oct 22.8 TT; AMR 0.016703 +/- 0.00058044 m2/kg Find_Orb
M 352.713585382 +/- 0.740 (J2000 equator)
n 160.841113431 +/- 0.26406 Peri. 319.120146 +/- 0.0001608
a 72277.88886 +/- 79.129 Node 98.880424 +/- 0.0001079
e 0.91087682 +/- 9.8304e-5 Incl. 145.550783 +/- 0.0002272
P3222.996m/2.238d H 30.22 G 0.15 U 11.8
q 6441.634778 +/- 0.086077 Q 138114.1429 +/- 158.29
From 75 observations 2025 Sept. 4-25; mean residual 3".798/2.04 sigmas
